Skip Page Navigation
NASA JPL Caltech
NASA Logo - Jet Propulsion Laboratory + View the NASA Portal
+ Near-Earth Object (NEO) Program
Search JPL
JPL Home Earth Solar System Stars & Galaxies Technology
JPL Solar System Dynamics
BODIES ORBITS EPHEMERIDES TOOLS PHYSICAL DATA DISCOVERY FAQ SITE MAP
JPL Small-Body Database Browser
Search: [ help ]  
11378 Dauria (1998 SV60)
Classification: Main-belt Asteroid          SPK-ID: 2011378
Ephemeris | Orbit Diagram | Orbital Elements | Physical Parameters | Discovery Circumstances ]

[ show orbit diagram ]
Orbital Elements at Epoch 2456800.5 (2014-May-23.0) TDB
Reference: JPL 9 (heliocentric ecliptic J2000)
 Element Value Uncertainty (1-sigma)   Units 
e .1327911249070322 6.358e-08  
a 2.395689192035041 1.466e-08 AU
q 2.077562929297089 1.5495e-07 AU
i 3.439892577820379 5.8246e-06 deg
node 143.3659504085367 0.00010962 deg
peri 254.5902270343156 0.00011245 deg
M 53.76722380667682 2.291e-05 deg
tp 2456598.217063590783
(2013-Nov-01.71706359)
8.5986e-05 JED
period 1354.39124343026
3.71
1.2432e-05
3.404e-08
d
yr
n .2658020728842205 2.4398e-09 deg/d
Q 2.713815454772993 1.6607e-08 AU
  Orbit Determination Parameters
   # obs. used (total)      876  
   data-arc span      9648 days (26.41 yr)  
   first obs. used      1987-10-23  
   last obs. used      2014-03-23  
   planetary ephem.      DE431  
   SB-pert. ephem.      SB431-BIG16  
   condition code      0  
   fit RMS      .58311  
   data source      ORB  
   producer      Otto Matic  
   solution date      2014-Apr-17 14:00:19  

Additional Information
 Earth MOID = 1.08666 AU 
 T_jup = 3.515 
[ show covariance matrix ]

Ephemeris | Orbit Diagram | Orbital Elements | Physical Parameters | Discovery Circumstances ]

Physical Parameter Table
Parameter Symbol Value Units Sigma Reference Notes
absolute magnitude H 14.4 mag n/a MPO266019  

11378 Dauria           Discovered 1998 Sept. 17 by the Lowell Observatory Near-Earth Object Search at the Anderson Mesa Station.
Florida amateur astronomer Tippy D´Auria (b. 1935) is founder of the Winter Star Party. For many years he has worked to encourage both beginning and advanced sky-watchers in the hobby.
NOTE: some special characters may not display properly (any characters within {} are an attempt to place the proper accent above a character)
Reference: 20010109/MPCPages.arcLast Updated: 2009-05-11

Alternate Designations
 1998 SV60 = 1987 UU7 = 1997 LX9 
Ephemeris | Orbit Diagram | Orbital Elements | Physical Parameters | Discovery Circumstances ]
ABOUT SSD CREDITS/AWARDS PRIVACY/COPYRIGHT GLOSSARY LINKS
FirstGov 2014-Apr-23 22:08 UT
(server date/time)  
NASA Home Page
Site Manager:   Donald K. Yeomans
Webmaster  Alan B. Chamberlin